User: anonymous   Login
Location: Kuppenheim
(48.8299°N, 8.2568°E)
Time: 22:13:51
(UTC+00:00)
Language:

ERBS - Orbit

View from above orbital plane
View from above orbital plane
View from above satellite
View from above satellite

Ground track
Ground track

The orbit data is extracted from the following two-line orbital elements,

1 15354U 84108B   21266.58683448  .00009879  00000-0  15673-3 0  9990
2 15354  57.0042 217.8241 0006045 177.9427 182.1659 15.54085232 39453
Epoch (UTC): 23 September 2021 14:05:02
Eccentricity: 0.0006045
inclination: 57.0042°
perigee height: 401 km
apogee height: 409 km
right ascension of ascending node: 217.8241°
argument of perigee: 177.9427°
revolutions per day: 15.54085232
mean anomaly at epoch: 182.1659°
orbit number at epoch: 3945

The dashed part of the orbit path shows where the satellite is in the earth's shadow,  

DLR